池谷-張彗星

153P/Ikeya-Zhang (2002)

English version
Home page
Total 6,336 html files since Dec. 4, 1995
Updated on November 12, 2002

---------------------------------------------------------------------

・ プロフィール

符号 153P/2002 C1
発見日 2002年2月1日
発見光度 9.0等、8.5等、7.5等
発見者 池谷薫(静岡県)、張大慶(中国・華南省)、P. M. Raymundo (Salvador, Brazil)

・ 軌道要素

Epoch 2002 Mar. 27.0 TT = JDT 2452360.5
T 2002 Mar. 18.9799 TT                                  MPCN
q   0.507069             (2000.0)            P               Q
z  +0.019600       Peri.   34.6670      -0.5491478      -0.6906892
                   Node    93.3703      +0.6195960      -0.7142941
e   0.990062       Incl.   28.1207      +0.5608363      +0.1128374
From 1513 observations 1661-2002, mean residual 0".9.  Nongravitational
     parameters A1 = +0.32, A2 = -0.0228.

・ 星図

・ 光度変化

        m1 =  6.8 + 5 logΔ +  9.0 log r  [   ,  0]  (              〜2002年 3月18日)
        m1 =  6.4 + 5 logΔ +  8.4 log r  [  0, 50]  (2002年 3月18日〜2002年 5月 7日)
        m1 =  6.6 + 5 logΔ +  5.0 log r  [ 50,100]  (2002年 5月 7日〜2002年 6月26日)
        m1 = -1.0 + 5 logΔ + 30   log r  [100,170]  (2002年 6月26日〜2002年 9月 4日)
        m1 =  6.0 + 5 logΔ + 15.0 log r  [170,   ]  (2002年 9月 4日〜              )

        ※ 緑色の曲線は、m1 = 6.8 + 5 logΔ + 9.0 log r の光度曲線です。

---------------------------------------------------------------------

軌道要素はMPCのEphemerides and Orbital Elementsに掲載されたものです。
星図は StellaNavigator Ver.2.0 for Windows (アストロアーツ 編著 / アスキー出版局刊) で作成したものです。
光度グラフはComet for Windowsで作成したものです。

---------------------------------------------------------------------

Copyright(C) 1995-2008 Seiichi Yoshida (comet@aerith.net). All rights reserved.